Alpine, AK

5:51 PM AKDT on August 28, 2014 (GMT -0800)
Nuiqsut | Change Station
CLOSE
Current Station
Airport
Location: Nuiqsut,
Elevation: 39 ft
Nearby Weather Stations

Elev 39 ft 70.21 °N, 150.99 °W | Updated 58 minutes ago

Overcast
Overcast
38 °F
Feels Like 30 °F
N
13
Wind Variable Wind from NNW

Today
High -- | Low -- °F
--% Chance of Precip.
Yesterday
High -- | Low -- °F
Precip. -- in
6:00 AM 10:06 PM
Waxing Crescent, 11% visible
Pressure 29.60 in
Visibility 10.0 miles
Clouds Mostly Cloudy 1300 ft
Overcast 3100 ft
Windchill 30 °F
Dew Point 33 °F
Humidity 83%
Rainfall 0.03 in
Snow Depth Not available.
UV 1 out of 12
Pollen Not available.
Air Quality Not available.
Flu Activity Not available.
METAR PAQT 290053Z AUTO 33011KT 10SM BKN013 OVC031 03/01 A2959 RMK RAB2356E46 SLP022 P0000 T00330006 TSNO VIA AUTODIAL

More Conditions Fewer Conditions

Pressure 29.60 in
Visibility 10.0 miles
Clouds Mostly Cloudy 1300 ft
Overcast 3100 ft
Windchill 30 °F
Dew Point 33 °F
Humidity 83%
Rainfall 0.03 in
Snow Depth Not available.
UV 1 out of 12
Pollen Not available.
Air Quality Not available.
Flu Activity Not available.
METAR PAQT 290053Z AUTO 33011KT 10SM BKN013 OVC031 03/01 A2959 RMK RAB2356E46 SLP022 P0000 T00330006 TSNO VIA AUTODIAL

More Conditions Fewer Conditions

10-Day Weather Forecast

Almanac

Astronomy

Aug. 28, 2014 Rise Set
Actual Time 6:00 AM AKDT 10:06 PM AKDT
Civil Twilight 4:36 AM AKDT 11:28 PM AKDT
Nautical Twilight Sun does not rise 1:32 AM AKDT
Astronomical Twilight Sun does not rise Sun does not rise
Moon 11:11 AM AKDT (8/28) 9:16 PM AKDT (8/28)
Length of Visible Light 18h 51m
Length of Day
16h 05m
Tomorrow will be 9m 30s shorter.
Waxing Crescent, 11% of the Moon is Illuminated
Today
Waxing Crescent
Sep 2
First Quarter
Sep 8
Full
Sep 15
Last Quarter
Sep 24
New

Today's Extremes

State Highs State Lows

Community

WunderPhotos

Upload Photos

1,748,131 photos uploaded!

Nearby

Snow Depth

Station Depth Elevation
Atigun Pass 0 in 4800 ft
Coldfoot 0 in 1040 ft
Gobblers Knob 0 in 2030 ft
Fort Yukon 1 in 430 ft
Eagle Summit 0 in 3650 ft

Earthquake Activity

City Distance Mag. Time & Date
No recent earthquake activity has been reported nearby.
Minimum magnitude displayed is 2.5.

Coastal Water Temperatures

Place Temperature
No Stations Reporting

Nearby Weather Stations